Tracking 30696 objects as of 15-Jun-2025
HD Live streaming from Space Station
objects crossing your sky now

THOR 2A

Track THOR 2A now!
THOR 2A is classified as:


NORAD ID: 24808
Int'l Code: 1997-025A
Perigee: 36,148.6 km
Apogee: 36,174.3 km
Inclination: 11.4 °
Period: 1,454.9 minutes
Semi major axis: 42532 km
RCS: 15.8489 m2 (large)
Launch date: May 20, 1997
Source: Norway (NOR)
Launch site: AIR FORCE EASTERN TEST RANGE (AFETR)

15 Ku-band; Nordic region, northern Europe.
Your satellite tracking list
Your tracking list is empty




NASA's NSSDC Master Catalog

Two Line Element Set (TLE):
1 24808U 97025A   25166.36351532 -.00000156  00000-0  00000-0 0  9996
2 24808  11.4220  35.4046 0003025 332.1226  31.8032  0.98974283 42457
Source of the keplerian elements: AFSPC